星链-36253(STARLINK-36253)

导读

STARLINK-36253(NORAD编号68028)是美国SpaceX公司星链(Starlink)星座中的一颗低轨互联网卫星,属于星链项目组网卫星的一部分。星链计划旨在构建覆盖全球的低轨卫星互联网,提供高速低延迟的宽带接入服务。 该卫星运行于近地轨道,在2026年SpaceX启动的星座优化计划中,这类原运行于550公里轨道的星链卫星将被降低轨道高度至480公里,以降低太空碰撞风险,让失效卫星能更快再入大气层销毁,减少太空碎片累积,保障近地轨道安全。

Basic Information
目录编号:
68028
目录名称:
STARLINK-36253
国际标识:
2026-040P
轨道中心:
EARTH
卫星名称:
星链-36253
卫星全名:
星链-36253(STARLINK-36253)
卫星状态:
在轨 (已飞行188 天)
发射日期:
2026-03-01 UTC
国别 :
美国 (US)
星等 :
--
Orbit Information
数据来源 国际轨道数据
星历时间: 2026-09-05T03:04:55+0800
18小时前
查看轨道信息
半长轴: 6799.085km
偏心率: 0.0006856
轨道倾角: 97.280°
近地点辐角 89.267°
升交点赤经 195.198°
平近点角 270.937°
近地点: 416.286km
远地点: 425.61km
周期: 92.990分钟
每日圈数: 15.485568
Detailed Information
固有亮度:
5
最大亮度:
2.5
卫星平台:
Starlink V1.0
覆盖范围:
全球
运营商:
太空探索技术公司
运营商所在国:
美国
制造商(研发单位):
太空探索技术公司
制造商所在国:
美国
使用方式:
暂无
Satellite Introduction
Starlink 计划是 SpaceX 推出的全球卫星互联网项目,通过发射低轨道卫星,为全球尤其是偏远地区提供高速、低延迟的互联网服务。自 2019 年起,Starlink 已部署数千颗卫星,旨在缩小全球数字鸿沟,推动互联网普及。该项目还为军事、航空等行业提供通信支持,带来广泛经济效益。
2D Orbit Map
3D Orbit Map
Orbit Altitude Analysis Chart
Orbit Inclination Analysis Chart
Orbit Comprehensive Analysis Chart
View Comprehensive Chart
Conjunction Data List
Event ID Objects TCA Miss Dist (km) Collision Risk Probability Collision Risk Index (CRI) Action
CDM_260906-054602-764306-802822
CHIPSAT (27643)
2026-09-06T
05:46:34+0000
2.956 km
极远距离
1.383461E-6 低风险 0.38
CDM_260905-140405-057306-802821
2026-09-05T
14:04:06+0000
2.882 km
极远距离
1.303725E-6 低风险 0.37